Time,TemperatureF,DewpointF,PressureIn,WindDirection,WindDirectionDegrees,WindSpeedMPH,WindSpeedGustMPH,Humidity,HourlyPrecipIn,Conditions,Clouds,dailyrainin,SoftwareType,DateUTC
2013-05-23 09:21:00,70.0,57.0,29.99,WNW,300,0.0,-999.0,64,-99.99,,,-99.99,,2013-05-23 14:21:00,
2013-05-23 09:32:00,71.0,58.0,29.99,West,280,0.0,-999.0,63,-99.99,,,-99.99,,2013-05-23 14:32:00,
2013-05-23 09:42:00,71.0,58.0,29.99,West,280,0.0,-999.0,63,-99.99,,,-99.99,,2013-05-23 14:42:00,
2013-05-23 09:52:00,71.0,57.0,29.98,West,279,4.0,-999.0,62,-99.99,,,-99.99,,2013-05-23 14:52:00,
2013-05-23 10:01:00,72.0,58.0,29.98,West,265,2.0,-999.0,61,-99.99,,,-99.99,,2013-05-23 15:01:00,
2013-05-23 10:11:00,72.0,58.0,29.98,West,265,2.0,-999.0,61,-99.99,,,-99.99,,2013-05-23 15:11:00,
2013-05-23 10:21:00,73.0,58.0,29.98,WNW,295,4.0,-999.0,60,-99.99,,,-99.99,,2013-05-23 15:21:00,
2013-05-23 10:32:00,73.0,58.0,29.98,NW,309,2.0,-999.0,59,-99.99,,,-99.99,,2013-05-23 15:32:00,
2013-05-23 10:42:00,73.0,58.0,29.98,NW,309,2.0,-999.0,59,-99.99,,,-99.99,,2013-05-23 15:42:00,
2013-05-23 10:53:00,73.0,58.0,30.00,WNW,302,3.0,-999.0,59,-99.99,,,-99.99,,2013-05-23 15:53:00,
2013-05-23 11:03:00,72.0,57.0,30.00,WNW,286,6.0,-999.0,59,-99.99,,,-99.99,,2013-05-23 16:03:00,
2013-05-23 11:12:00,72.0,57.0,30.00,WNW,286,6.0,-999.0,59,-99.99,,,-99.99,,2013-05-23 16:12:00,
2013-05-23 11:23:00,74.0,59.0,30.02,NW,309,7.0,-999.0,59,-99.99,,,-99.99,,2013-05-23 16:23:00,
2013-05-23 11:33:00,74.0,59.0,30.01,WNW,283,5.0,-999.0,59,-99.99,,,-99.99,,2013-05-23 16:33:00,
2013-05-23 11:42:00,74.0,59.0,30.01,WNW,283,5.0,-999.0,59,-99.99,,,-99.99,,2013-05-23 16:42:00,
2013-05-23 11:52:00,74.0,59.0,30.01,WNW,288,6.0,-999.0,60,-99.99,,,-99.99,,2013-05-23 16:52:00,
2013-05-23 12:03:00,75.0,59.0,30.02,West,275,7.0,-999.0,57,-99.99,,,-99.99,,2013-05-23 17:03:00,
2013-05-23 12:11:00,75.0,59.0,30.02,West,275,7.0,-999.0,57,-99.99,,,-99.99,,2013-05-23 17:11:00,
2013-05-23 12:22:00,75.0,59.0,30.02,West,275,8.0,-999.0,57,-99.99,,,-99.99,,2013-05-23 17:22:00,
2013-05-23 12:33:00,75.0,59.0,30.01,WNW,297,7.0,-999.0,58,-99.99,,,-99.99,,2013-05-23 17:33:00,
2013-05-23 12:43:00,75.0,59.0,30.01,WNW,297,7.0,-999.0,58,-99.99,,,-99.99,,2013-05-23 17:43:00,
2013-05-23 12:52:00,75.0,58.0,30.01,West,276,7.0,-999.0,56,-99.99,,,-99.99,,2013-05-23 17:52:00,
2013-05-23 13:01:00,75.0,60.0,30.01,West,261,3.0,-999.0,59,-99.99,,,-99.99,,2013-05-23 18:01:00,
2013-05-23 13:11:00,75.0,60.0,30.01,West,261,3.0,-999.0,59,-99.99,,,-99.99,,2013-05-23 18:11:00,
2013-05-23 13:21:00,76.0,59.0,30.01,NW,309,7.0,-999.0,55,-99.99,,,-99.99,,2013-05-23 18:21:00,
2013-05-23 13:32:00,76.0,59.0,30.00,NNW,331,5.0,-999.0,55,-99.99,,,-99.99,,2013-05-23 18:32:00,
2013-05-23 13:42:00,76.0,59.0,30.00,NNW,331,5.0,-999.0,55,-99.99,,,-99.99,,2013-05-23 18:42:00,
2013-05-23 13:52:00,76.0,59.0,30.00,NNW,337,2.0,-999.0,55,-99.99,,,-99.99,,2013-05-23 18:52:00,
2013-05-23 14:01:00,76.0,59.0,30.01,WNW,286,2.0,-999.0,56,-99.99,,,-99.99,,2013-05-23 19:01:00,
2013-05-23 14:11:00,76.0,59.0,30.01,WNW,286,2.0,-999.0,56,-99.99,,,-99.99,,2013-05-23 19:11:00,
2013-05-23 14:21:00,77.0,59.0,30.01,West,263,3.0,-999.0,54,-99.99,,,-99.99,,2013-05-23 19:21:00,
2013-05-23 14:32:00,77.0,59.0,30.01,NW,314,4.0,-999.0,54,-99.99,,,-99.99,,2013-05-23 19:32:00,
2013-05-23 14:42:00,78.0,58.0,30.00,West,276,4.0,-999.0,51,-99.99,,,-99.99,,2013-05-23 19:42:00,
2013-05-23 14:52:00,78.0,58.0,30.00,West,276,4.0,-999.0,51,-99.99,,,-99.99,,2013-05-23 19:52:00,
2013-05-23 15:02:00,78.0,59.0,30.01,WNW,283,3.0,-999.0,53,-99.99,,,-99.99,,2013-05-23 20:02:00,
2013-05-23 15:11:00,78.0,59.0,30.01,WNW,283,3.0,-999.0,53,-99.99,,,-99.99,,2013-05-23 20:11:00,
2013-05-23 15:21:00,79.0,60.0,30.00,West,276,2.0,-999.0,53,-99.99,,,-99.99,,2013-05-23 20:21:00,
2013-05-23 15:32:00,79.0,60.0,30.00,West,281,4.0,-999.0,53,-99.99,,,-99.99,,2013-05-23 20:32:00,
2013-05-23 15:41:00,79.0,60.0,30.00,West,281,4.0,-999.0,53,-99.99,,,-99.99,,2013-05-23 20:41:00,
2013-05-23 15:52:00,79.0,59.0,30.00,WNW,287,2.0,-999.0,51,-99.99,,,-99.99,,2013-05-23 20:52:00,
2013-05-23 16:01:00,79.0,59.0,30.00,NNE,28,3.0,-999.0,51,-99.99,,,-99.99,,2013-05-23 21:01:00,
2013-05-23 16:11:00,79.0,59.0,30.00,NNE,28,3.0,-999.0,51,-99.99,,,-99.99,,2013-05-23 21:11:00,
2013-05-23 16:21:00,79.0,57.0,30.00,WSW,257,2.0,-999.0,47,-99.99,,,-99.99,,2013-05-23 21:21:00,
2013-05-23 16:32:00,79.0,57.0,30.00,WNW,296,2.0,-999.0,47,-99.99,,,-99.99,,2013-05-23 21:32:00,
2013-05-23 16:43:00,79.0,57.0,30.00,WNW,296,2.0,-999.0,47,-99.99,,,-99.99,,2013-05-23 21:43:00,
2013-05-23 16:53:00,80.0,55.0,30.00,NNW,348,6.0,-999.0,43,-99.99,,,-99.99,,2013-05-23 21:53:00,
2013-05-23 17:02:00,80.0,57.0,30.00,NNE,31,5.0,-999.0,45,-99.99,,,-99.99,,2013-05-23 22:02:00,
2013-05-23 17:12:00,80.0,57.0,30.00,NNE,31,5.0,-999.0,45,-99.99,,,-99.99,,2013-05-23 22:12:00,
2013-05-23 17:22:00,80.0,57.0,30.01,NNW,344,5.0,-999.0,46,-99.99,,,-99.99,,2013-05-23 22:22:00,
2013-05-23 17:33:00,79.0,57.0,30.01,NW,317,6.0,-999.0,47,-99.99,,,-99.99,,2013-05-23 22:33:00,
2013-05-23 17:42:00,79.0,57.0,30.01,NW,317,6.0,-999.0,47,-99.99,,,-99.99,,2013-05-23 22:42:00,
2013-05-23 17:52:00,78.0,57.0,30.01,North,9,7.0,-999.0,48,-99.99,,,-99.99,,2013-05-23 22:52:00,
2013-05-23 18:01:00,78.0,57.0,30.01,North,9,7.0,-999.0,48,-99.99,,,-99.99,,2013-05-23 23:01:00,
2013-05-23 18:11:00,78.0,57.0,30.01,North,9,7.0,-999.0,48,-99.99,,,-99.99,,2013-05-23 23:11:00,
2013-05-23 18:21:00,78.0,57.0,30.01,North,9,7.0,-999.0,48,-99.99,,,-99.99,,2013-05-23 23:21:00,
2013-05-23 18:31:00,78.0,57.0,30.01,North,9,7.0,-999.0,48,-99.99,,,-99.99,,2013-05-23 23:31:00,
2013-05-23 19:22:00,75.0,57.0,30.02,NNE,26,6.0,-999.0,54,-99.99,,,-99.99,,2013-05-24 00:22:00,
2013-05-23 19:32:00,74.0,57.0,30.03,NNE,26,5.0,-999.0,55,-99.99,,,-99.99,,2013-05-24 00:32:00,
2013-05-23 19:42:00,74.0,57.0,30.03,NNE,26,5.0,-999.0,55,-99.99,,,-99.99,,2013-05-24 00:42:00,
2013-05-23 19:52:00,73.0,57.0,30.03,NNE,17,2.0,-999.0,57,-99.99,,,-99.99,,2013-05-24 00:52:00,
2013-05-23 20:01:00,72.0,56.0,30.03,North,9,0.0,-999.0,58,-99.99,,,-99.99,,2013-05-24 01:01:00,
2013-05-23 20:12:00,72.0,56.0,30.03,North,9,0.0,-999.0,58,-99.99,,,-99.99,,2013-05-24 01:12:00,